[[{"header":{"parameterUnit":"m.s-1","parameterCategory":1,"la1":30.2991,"la2":30.254,"lo1":-89.0895,"lo2":-89.0444,"dy":0.0017,"dx":0.0017,"nx":28,"ny":28,"refTime":"2025-08-17T21:00:00:Z","depth":0,"parameterNumber":2,"parameterNumberName":"U-component_of_WINDS"},"data":[0,0,0,0,0,0,0,0,0,0,0,0,0,0,0,0,0,0,0,0,0,0,0,0,0,0,0,0,0,0,0,0,0,0,0,0,0,0,0,0,0,0,0,0,0,0,0,0,0,0,0,0,0,0,0,0,0,0,-2.1713,-2.1715,0,-2.1913,-2.1915,-2.1918,-2.2047,-2.2048,-2.2048,-2.2049,-2.2255,-2.226,-2.2265,0,0,0,0,0,0,0,0,0,0,0,0,0,-2.1442,-2.1446,-2.1712,-2.1715,-2.1717,-2.1913,-2.1916,-2.1918,-2.2047,-2.2048,-2.2049,-2.205,-2.2254,-2.226,-2.2265,0,0,0,0,0,0,0,0,0,0,0,0,0,-2.1592,-2.1447,-2.1712,-2.1805,-2.1815,-2.1912,-2.1916,-2.1919,-2.2047,-2.2048,-2.2049,-2.205,-2.2252,-2.2259,-2.2266,-2.2286,0,0,-2.2288,-2.2291,0,0,0,0,0,0,0,0,-2.1583,-2.1602,-2.1789,-2.1799,-2.1811,-2.1956,-2.1896,-2.2042,-2.2046,-2.1959,-2.2049,-2.2051,-2.2155,-2.217,-2.2205,-2.2296,-2.2305,-2.2288,-2.2293,-2.2296,-2.2298,0,0,0,0,0,0,0,-2.1573,-2.1594,-2.1792,-2.1791,-2.1805,-2.1837,-2.186,-2.1924,-2.2048,-2.1966,-2.1976,-2.1998,-2.2161,-2.2198,-2.2211,-2.2308,-2.2288,-2.2295,-2.2299,-2.2302,-2.2427,-2.2426,0,0,0,0,0,0,-2.1548,-2.1585,-2.1786,-2.1798,-2.1698,-2.1841,-2.1866,-2.1908,-2.2047,-2.207,-2.1997,-2.2004,-2.2185,-2.2203,-2.2219,-2.2253,-2.2296,-2.2302,-2.2307,-2.2428,-2.2427,-2.2426,0,0,0,0,0,0,-2.1541,-2.1564,-2.1777,-2.1694,-2.1724,-2.1844,-2.189,-2.1912,-2.1949,-2.2071,-2.2093,-2.2012,-2.2187,-2.2209,-2.2269,-2.2262,-2.2306,-2.2312,-2.2429,-2.2428,-2.2426,-2.2321,0,0,0,0,0,0,-2.1533,-2.1561,-2.157,-2.1693,-2.1728,-2.1823,-2.189,-2.1915,-2.1961,-2.1971,-2.2091,-2.2112,-2.2189,-2.2258,-2.2276,-2.2273,-2.2318,-2.243,-2.2429,-2.2427,-2.2325,-2.2316,-2.2308,0,0,0,0,0,-2.1523,-2.1532,-2.157,-2.1593,-2.1741,-2.1823,-2.1842,-2.1932,-2.1959,-2.1969,-2.2048,-2.2108,-2.2259,-2.2263,-2.2284,-2.2283,-2.2431,-2.2429,-2.2427,-2.2329,-2.2318,-2.2308,0,0,0,0,0,0,-2.1405,-2.155,-2.1593,-2.1643,-2.1719,-2.1844,-2.186,-2.1916,-2.1987,-2.1994,-2.2102,-2.2128,-2.2177,-2.2236,-2.2237,-2.2311,-2.2353,-2.2355,-2.2271,-2.2261,-2.2252,-2.2237,-2.2324,0,0,0,0,0,-2.1384,-2.1439,-2.1563,-2.1594,-2.163,-2.1738,-2.1777,-2.1839,-2.1923,-2.1956,-2.2039,-2.2119,-2.2185,-2.2226,-2.2293,-2.2334,-2.2363,-2.2344,-2.2335,-2.2327,-2.2328,-2.2356,-2.2349,-2.2419,-2.2419,-2.2419,0,0,-2.1343,-2.1429,-2.1457,-2.1572,-2.1639,-2.1693,-2.1764,-2.1818,-2.186,-2.1965,-2.2027,-2.209,-2.2186,-2.2237,-2.2264,-2.2288,-2.2315,-2.2325,-2.2317,-2.2323,-2.2353,-2.2346,-2.234,-2.2417,-2.2418,-2.2418,0,0,-2.1296,-2.1366,-2.14,-2.1466,-2.1566,-2.1638,-2.1645,-2.1762,-2.1809,-2.1872,-2.1952,-2.2003,-2.2114,-2.218,-2.2228,-2.2205,-2.2263,-2.2224,-2.2178,-2.2203,-2.2198,-2.2194,-2.2187,-2.2183,-2.2224,-2.2224,-2.2224,0,-2.1232,-2.1317,-2.1411,-2.1461,-2.151,-2.1607,-2.1643,-2.1702,-2.1818,-2.185,-2.1875,-2.2017,-2.2089,-2.2157,-2.2151,-2.2186,-2.22,-2.2211,-2.2191,-2.2188,-2.2185,-2.218,-2.2177,-2.2218,-2.2219,-2.222,-2.222,0,-2.1234,-2.1291,-2.1307,-2.1418,-2.1468,-2.1511,-2.1612,-2.1652,-2.1709,-2.1778,-2.1843,-2.1932,-2.2019,-2.204,-2.2096,-2.2116,-2.2128,-2.217,-2.2215,-2.2171,-2.2169,-2.2167,-2.2211,-2.2213,-2.2214,-2.2216,0,0,-2.1119,-2.1281,-2.1285,-2.1337,-2.1455,-2.1501,-2.1548,-2.1633,-2.1666,-2.1743,-2.1786,-2.1878,-2.1918,-2.1972,-2.2037,-2.2059,-2.2037,-2.2099,-2.2103,-2.2086,-2.2066,-2.2034,-2.203,-2.2076,-2.2076,-2.2076,-2.2058,0,-2.1091,-2.118,-2.1266,-2.1325,-2.138,-2.1472,-2.1514,-2.159,-2.1656,-2.1712,-2.1785,-2.1849,-2.1896,-2.193,-2.1955,-2.2034,-2.2035,-2.2036,-2.2118,-2.212,-2.2092,-2.2029,-2.1995,-2.1974,-2.2058,-2.2057,-2.2057,0,-2.107,-2.1143,-2.1207,-2.132,-2.1346,-2.1381,-2.1467,-2.1519,-2.1608,-2.1654,-2.1714,-2.1783,-2.1838,-2.1875,-2.1953,-2.1952,-2.1991,-2.2034,-2.2035,-2.2048,-2.2087,-2.204,-2.197,-2.1967,-2.2056,-2.2056,-2.2056,0,-2.0981,-2.1095,-2.1149,-2.119,-2.1322,-2.1345,-2.1402,-2.1492,-2.1538,-2.1613,-2.1644,-2.1723,-2.1767,-2.1828,-2.1917,-2.1935,-2.1986,-2.203,-2.2027,-2.2025,-2.2034,-2.2033,-2.197,-2.2056,-2.2056,-2.2056,-2.2057,0,-2.0941,-2.0977,-2.1111,-2.1144,-2.1187,-2.1285,-2.1325,-2.139,-2.147,-2.1517,-2.1602,-2.1645,-2.1759,-2.1815,-2.1885,-2.194,-2.1959,-2.1998,-2.2017,-2.1992,-2.1987,-2.2019,-2.2024,-2.2056,-2.2056,-2.2056,-2.2056,0,-2.085,-2.0941,-2.1006,-2.1126,-2.1157,-2.1183,-2.1286,-2.1322,-2.1392,-2.1451,-2.1471,-2.1581,-2.1653,-2.1747,-2.1847,-2.1894,-2.1941,-2.1969,-2.191,-2.1922,-2.1914,-2.1913,-2.1871,-2.1871,-2.1955,-2.1954,-2.1953,0,-2.082,-2.085,-2.0972,-2.101,-2.1064,-2.1123,-2.1171,-2.1269,-2.1314,-2.1418,-2.1442,-2.1519,-2.1587,-2.1696,-2.1786,-2.1864,-2.1895,-2.1875,-2.1907,-2.1881,-2.1897,-2.1894,-2.1898,-2.1867,-2.1866,-2.1864,-2.1864,0,-2.0756,-2.08,-2.0864,-2.0944,-2.0998,-2.1066,-2.1138,-2.1164,-2.1277,-2.1325,-2.1398,-2.145,-2.1553,-2.163,-2.1719,-2.1778,-2.184,-2.1852,-2.1856,-2.1831,-2.1797,-2.1817,-2.189,-2.1853,-2.1854,-2.1855,-2.1856,-2.1856,-2.0696,-2.0727,-2.0818,-2.0888,-2.0952,-2.1017,-2.1057,-2.1131,-2.1194,-2.1285,-2.1339,-2.1411,-2.15,-2.1627,-2.1683,-2.1741,-2.1765,-2.177,-2.1772,-2.1772,-2.1764,-2.1786,-2.1758,-2.1758,-2.1759,-2.1759,-2.1759,0,-2.0638,-2.0701,-2.0764,-2.0861,-2.0916,-2.0968,-2.105,-2.1093,-2.1154,-2.1232,-2.1296,-2.1381,-2.1456,-2.1551,-2.1632,-2.1661,-2.1691,-2.1679,-2.1679,-2.1691,-2.1737,-2.1727,-2.1653,-2.1653,-2.1653,-2.1653,-2.1653,-2.1653,-2.0615,-2.067,-2.0724,-2.0812,-2.0876,-2.0946,-2.0989,-2.105,-2.1112,-2.1203,-2.1265,-2.1326,-2.1411,-2.1499,-2.157,-2.1597,-2.1623,-2.1602,-2.1637,-2.1679,-2.1688,-2.1697,-2.1688,-2.1607,-2.1607,-2.1587,-2.1587,-2.1587]},{"header":{"parameterUnit":"m.s-1","parameterCategory":1,"la1":30.2991,"la2":30.254,"lo1":-89.0895,"lo2":-89.0444,"dy":0.0017,"dx":0.0017,"nx":28,"ny":28,"refTime":"2025-08-17T21:00:00:Z","depth":0,"parameterNumber":3,"parameterNumberName":"V-component_of_WINDS"},"data":[0,0,0,0,0,0,0,0,0,0,0,0,0,0,0,0,0,0,0,0,0,0,0,0,0,0,0,0,0,0,0,0,0,0,0,0,0,0,0,0,0,0,0,0,0,0,0,0,0,0,0,0,0,0,0,0,0,0,2.1419,2.1416,0,2.1172,2.1169,2.1166,2.0934,2.0932,2.0929,2.0926,2.0665,2.0661,2.0656,0,0,0,0,0,0,0,0,0,0,0,0,0,2.1688,2.1684,2.1419,2.1416,2.1413,2.1172,2.1169,2.1165,2.0935,2.0932,2.0928,2.0925,2.0666,2.0661,2.0656,0,0,0,0,0,0,0,0,0,0,0,0,0,2.1519,2.1683,2.142,2.1269,2.1253,2.1173,2.1168,2.1164,2.0936,2.0931,2.0927,2.0923,2.0668,2.0662,2.0655,2.0701,0,0,2.0636,2.0633,0,0,0,0,0,0,0,0,2.1529,2.1509,2.1294,2.1279,2.1262,2.108,2.1167,2.1009,2.0937,2.1056,2.0926,2.0921,2.0806,2.0788,2.075,2.0689,2.0677,2.0635,2.0631,2.0628,2.0626,0,0,0,0,0,0,0,2.1541,2.1518,2.1321,2.1292,2.1271,2.1213,2.1184,2.1136,2.0958,2.1045,2.1028,2.1002,2.0796,2.0757,2.0743,2.0674,2.0635,2.0629,2.0625,2.0623,2.0641,2.0645,0,0,0,0,0,0,2.1576,2.153,2.1329,2.1313,2.1388,2.1211,2.1179,2.1142,2.0958,2.0925,2.1006,2.0992,2.077,2.075,2.0732,2.0777,2.0628,2.0622,2.0619,2.0637,2.0642,2.0647,0,0,0,0,0,0,2.1583,2.1561,2.1339,2.1417,2.1384,2.1211,2.1172,2.114,2.1101,2.0928,2.0894,2.1,2.0766,2.0742,2.0712,2.0765,2.0619,2.0613,2.0632,2.0638,2.0644,2.0865,0,0,0,0,0,0,2.1592,2.1564,2.1581,2.1419,2.1381,2.1325,2.1175,2.1138,2.1091,2.1071,2.0913,2.0883,2.0761,2.0723,2.0706,2.0753,2.0608,2.0626,2.0635,2.0642,2.0853,2.0879,2.0901,0,0,0,0,0,2.1602,2.165,2.1583,2.156,2.1398,2.1328,2.1306,2.1167,2.1096,2.1111,2.1001,2.0888,2.0762,2.0722,2.07,2.0747,2.0622,2.0632,2.0642,2.0842,2.0873,2.09,0,0,0,0,0,0,2.1818,2.1626,2.1549,2.1546,2.1456,2.1289,2.1303,2.1204,2.1129,2.1113,2.0941,2.0907,2.0898,2.0818,2.0778,2.0783,2.0677,2.0683,2.0836,2.0865,2.0889,2.0908,2.0603,0,0,0,0,0,2.1867,2.1828,2.166,2.1674,2.1633,2.1478,2.1441,2.1343,2.124,2.12,2.1087,2.0991,2.0929,2.0892,2.0825,2.084,2.0803,2.0861,2.0885,2.0906,2.0914,2.0919,2.0944,2.0679,2.0679,2.0679,0,0,2.1964,2.1854,2.1839,2.1715,2.1633,2.1596,2.1446,2.1411,2.1382,2.1193,2.1161,2.1075,2.0956,2.095,2.0941,2.0883,2.0979,2.0919,2.0937,2.0932,2.0932,2.0957,2.0979,2.0686,2.0684,2.0683,0,0,2.2123,2.2036,2.204,2.1962,2.1842,2.1739,2.1741,2.1589,2.1527,2.1492,2.1351,2.1312,2.1209,2.1132,2.1079,2.1215,2.111,2.1198,2.1325,2.1332,2.1353,2.137,2.1422,2.1442,2.1206,2.1206,2.1207,0,2.2259,2.2199,2.2053,2.203,2.1981,2.1812,2.1816,2.1746,2.161,2.1579,2.1517,2.1388,2.1295,2.1271,2.1305,2.1267,2.1264,2.1215,2.1362,2.1378,2.1392,2.144,2.1459,2.1218,2.1217,2.1216,2.1215,0,2.2374,2.2335,2.2352,2.223,2.2182,2.2172,2.2025,2.1993,2.19,2.1804,2.1772,2.1656,2.1566,2.1552,2.1458,2.1516,2.1484,2.1394,2.1284,2.1432,2.1474,2.149,2.1235,2.1231,2.1227,2.1224,0,0,2.266,2.2462,2.247,2.2415,2.2272,2.2238,2.2221,2.2137,2.2115,2.2027,2.2009,2.1929,2.1847,2.1787,2.1683,2.169,2.181,2.1599,2.1594,2.1645,2.187,2.194,2.1963,2.1739,2.1742,2.1744,2.1881,0,2.2797,2.276,2.2631,2.2632,2.2596,2.2438,2.2423,2.2334,2.2245,2.22,2.2098,2.2046,2.194,2.1904,2.1903,2.1796,2.1853,2.1784,2.1721,2.1721,2.1758,2.1984,2.2056,2.2191,2.1896,2.1898,2.19,0,2.2951,2.288,2.288,2.2743,2.2723,2.2712,2.2627,2.2586,2.2482,2.2416,2.2354,2.224,2.2213,2.2111,2.2073,2.2029,2.1996,2.194,2.1942,2.1931,2.1821,2.1982,2.2229,2.2251,2.1923,2.1922,2.192,0,2.3165,2.3067,2.3055,2.3012,2.2851,2.2849,2.2781,2.2673,2.2632,2.2556,2.2528,2.245,2.2407,2.2348,2.2217,2.2154,2.2195,2.208,2.214,2.2144,2.2155,2.2157,2.2404,2.2132,2.2132,2.2132,2.2131,0,2.3332,2.3339,2.315,2.3143,2.3146,2.2997,2.3004,2.2921,2.2828,2.2801,2.2658,2.2636,2.2463,2.2421,2.2317,2.2304,2.2284,2.2231,2.2203,2.2245,2.2252,2.2221,2.2209,2.2137,2.2136,2.2135,2.2134,0,2.357,2.3444,2.3421,2.3273,2.3236,2.3246,2.3117,2.3105,2.3008,2.2977,2.2961,2.2809,2.2753,2.2617,2.2522,2.2453,2.2467,2.2416,2.2504,2.2487,2.2556,2.2552,2.2792,2.2817,2.253,2.2533,2.2535,0,2.3686,2.3688,2.3543,2.3517,2.3457,2.3416,2.3375,2.3229,2.3192,2.3078,2.3079,2.3013,2.2952,2.287,2.275,2.2679,2.2625,2.2715,2.2613,2.2656,2.2629,2.2632,2.2632,2.2737,2.2741,2.2744,2.2747,0,2.3906,2.3845,2.3793,2.3722,2.3678,2.3613,2.354,2.3526,2.3362,2.3328,2.3272,2.3225,2.3133,2.307,2.2981,2.2909,2.2802,2.2781,2.2791,2.2833,2.2886,2.2861,2.2567,2.2775,2.2772,2.277,2.2769,2.2768,2.4087,2.4084,2.3983,2.3931,2.3862,2.3799,2.3781,2.3685,2.3636,2.3553,2.3469,2.3422,2.3321,2.3192,2.3128,2.3089,2.3033,2.3047,2.3051,2.3057,2.3077,2.2892,2.3071,2.307,2.3069,2.3068,2.3068,0,2.4302,2.4231,2.4185,2.409,2.4051,2.3957,2.3872,2.3845,2.3806,2.3723,2.3668,2.3605,2.3544,2.3422,2.335,2.3342,2.3291,2.3328,2.3328,2.3314,2.3129,2.3129,2.3371,2.3371,2.3371,2.3371,2.3371,2.3371,2.4409,2.44,2.4328,2.4284,2.421,2.4167,2.4127,2.4068,2.4002,2.3939,2.389,2.3812,2.3713,2.3634,2.3574,2.3539,2.352,2.3574,2.3524,2.3355,2.3326,2.3299,2.3297,2.3571,2.3571,2.3711,2.3713,2.3714]}]]